Temp
14 14 14 14 14 14 14 13 13 12 11 11 10 10 10 9 9 9 9 9 9 9 9 9 9 9 9 10 10 10 10 10 10 9 8 9 8 8 8 7 7 8 8
14 14 14 14 14 14 14 13 13 12 12 11 10 10 10 10 10 10 10 10 9 9 10 10 10 10 10 10 10 10 9 9 9 9 8 5 5 7 8 8 8 8 8
14 14 14 14 14 13 13 13 13 12 12 11 11 11 10 10 10 10 10 10 10 10 10 10 10 10 10 10 10 10 9 9 9 9 8 6 5 5 6 7 7 7 7
15 14 14 14 14 13 13 13 13 12 12 12 11 11 11 11 10 11 11 11 11 11 11 11 11 11 11 10 10 10 9 8 8 8 8 8 8 5 4 3 6 6 6
16 15 14 14 14 13 13 13 13 13 12 12 11 11 11 11 11 10 11 11 11 11 10 10 10 10 11 11 10 10 9 8 8 7 7 7 7 7 6 5 3 4 6
17 16 15 14 14 13 13 14 14 14 13 12 12 11 11 11 11 11 11 11 10 10 10 10 10 10 10 10 10 10 9 8 8 7 7 7 6 5 6 6 6 6 5
17 17 16 16 15 14 14 14 14 14 13 13 12 11 11 11 11 11 11 11 10 10 10 10 10 10 10 10 10 10 9 8 8 7 7 7 6 6 6 6 5 3 3
17 16 16 16 16 15 15 14 14 14 14 13 13 12 11 11 11 11 11 11 11 10 10 10 9 9 9 9 10 10 9 9 8 7 7 6 6 6 5 5 4 4 2
18 17 16 16 16 15 15 15 14 14 14 13 13 13 12 12 11 11 11 11 10 10 10 9 9 9 9 9 9 9 9 9 8 7 7 6 5 4 4 4 5 5 5
18 18 17 16 16 15 15 15 14 14 14 13 13 13 12 12 11 11 11 11 10 9 9 9 9 8 8 8 8 9 9 8 8 7 7 6 5 4 3 4 4 4 5
19 18 17 17 16 15 15 14 14 14 13 13 13 13 13 12 11 11 10 10 10 9 9 8 9 8 8 8 8 8 7 8 7 7 6 6 5 4 3 2 4 4 4
19 19 18 17 17 16 15 14 14 14 14 13 13 13 13 12 12 11 10 10 9 9 8 8 7 7 7 7 7 7 7 7 7 6 6 5 5 4 4 4 4 3 3
19 19 18 18 17 16 15 15 14 14 14 13 13 13 12 12 12 11 10 10 9 8 9 10 8 6 7 7 7 6 6 6 6 5 5 4 4 4 3 3 3 2 2
19 19 19 18 17 17 16 16 15 14 14 13 13 13 13 12 12 11 10 9 9 9 10 10 7 5 5 6 6 5 5 5 5 5 4 4 4 3 3 3 3 3 3
19 19 18 18 18 17 16 16 15 15 14 14 14 14 13 13 12 11 10 10 9 10 10 9 8 7 6 6 5 5 5 5 5 4 4 3 3 3 3 3 3 3 3
18 19 18 18 17 17 17 16 16 15 15 14 14 14 13 13 13 12 11 11 11 11 10 9 8 7 6 6 5 4 4 4 4 4 3 3 3 3 3 3 3 3 3
18 18 18 18 17 17 17 16 16 15 15 15 15 14 14 14 14 13 12 12 11 11 10 10 7 6 5 5 5 4 4 4 4 4 3 4 3 3 3 2 2 3 3
18 18 18 18 18 17 16 16 16 16 16 15 15 14 14 14 13 13 12 12 12 11 9 9 7 5 6 5 5 4 4 3 3 3 3 3 3 3 2 2 2 3 2
18 18 18 18 18 17 16 16 16 16 16 15 15 14 14 13 12 12 12 11 11 10 10 9 8 7 6 5 4 4 3 3 3 3 3 2 2 2 2 2 2 2 2
18 18 18 18 18 17 16 16 16 16 15 15 15 14 12 12 12 11 11 11 10 10 9 8 8 7 5 5 4 4 3 3 3 3 3 2 2 2 2 2 2 2 2
18 18 18 17 17 16 16 16 15 15 14 14 13 13 12 12 12 12 11 10 9 8 7 7 6 6 5 4 4 4 3 3 3 2 3 2 2 2 2 2 2 2 2
17 17 17 16 16 15 15 15 14 13 13 13 12 12 12 12 11 10 10 10 8 7 7 7 6 6 4 4 3 4 3 3 2 3 2 2 2 2 3 2 2 2 2
15 15 14 14 14 14 14 13 12 12 12 12 12 12 11 10 10 9 9 9 7 7 7 6 5 4 4 4 4 4 3 3 2 2 2 2 2 2 2 2 2 2 1
13 13 12 13 13 13 13 13 12 12 12 12 11 10 10 9 9 8 8 7 7 6 6 5 5 4 4 3 4 3 2 2 2 2 2 2 2 2 1 2 2 1 0
10 11 11 11 12 12 12 12 12 12 12 11 11 10 9 8 7 7 7 6 6 6 5 5 4 4 3 3 3 2 2 2 2 2 2 2 1 1 1 1 1 0 0
11 11 11 11 12 12 12 12 12 12 11 10 9 9 8 7 7 6 6 6 6 6 6 4 3 3 3 3 2 2 2 2 2 1 1 1 1 0 0 1 1 1 1
Height
3188 3189 3190 3192 3193 3194 3196 3197 3199 3201 3201 3203 3204 3205 3207 3207 3209 3210 3210 3210 3211 3211 3210 3209 3209 3208 3207 3205 3203 3201 3199 3197 3195 3194 3192 3191 3191 3190 3190 3189 3189 3190 3190
3181 3184 3186 3188 3190 3192 3193 3194 3196 3197 3199 3200 3202 3203 3203 3204 3205 3207 3207 3208 3208 3207 3207 3207 3207 3205 3204 3201 3199 3197 3196 3195 3194 3192 3191 3193 3190 3189 3187 3187 3188 3188 3187
3177 3180 3182 3184 3187 3189 3190 3192 3193 3194 3195 3197 3198 3200 3202 3203 3203 3204 3206 3206 3206 3207 3206 3205 3204 3203 3200 3198 3196 3194 3193 3192 3191 3191 3191 3191 3193 3188 3185 3184 3185 3185 3184
3172 3174 3177 3179 3182 3186 3187 3188 3189 3190 3192 3194 3195 3197 3199 3200 3201 3203 3205 3206 3206 3205 3205 3203 3202 3201 3199 3197 3195 3193 3191 3190 3189 3189 3189 3188 3187 3187 3190 3184 3181 3181 3181
3166 3169 3171 3174 3178 3181 3182 3184 3186 3187 3189 3191 3193 3195 3196 3198 3200 3202 3204 3205 3204 3204 3203 3202 3201 3200 3198 3196 3193 3192 3189 3188 3187 3187 3186 3186 3185 3185 3185 3184 3183 3178 3176
3162 3164 3167 3170 3172 3175 3178 3180 3183 3185 3186 3188 3190 3193 3195 3197 3199 3201 3203 3203 3203 3203 3203 3201 3201 3199 3197 3195 3193 3191 3189 3188 3186 3184 3183 3183 3183 3181 3181 3180 3179 3178 3175
3157 3160 3162 3163 3167 3169 3173 3177 3180 3182 3183 3185 3187 3190 3193 3195 3197 3199 3200 3201 3201 3202 3201 3200 3199 3197 3196 3194 3192 3191 3188 3186 3185 3184 3183 3181 3180 3178 3177 3175 3174 3173 3173
3151 3154 3157 3159 3162 3165 3169 3173 3176 3179 3181 3183 3185 3187 3190 3192 3194 3196 3197 3198 3199 3199 3198 3197 3197 3196 3194 3192 3190 3188 3185 3184 3182 3181 3180 3179 3177 3176 3174 3174 3171 3170 3169
3145 3146 3151 3154 3157 3160 3165 3169 3172 3175 3178 3180 3181 3183 3186 3188 3190 3192 3194 3195 3196 3197 3197 3196 3195 3194 3192 3189 3187 3185 3182 3180 3179 3178 3176 3175 3174 3172 3171 3170 3169 3167 3164
3139 3142 3144 3148 3151 3155 3161 3164 3168 3171 3173 3175 3178 3180 3183 3185 3187 3188 3190 3192 3194 3193 3194 3193 3191 3191 3189 3186 3183 3181 3179 3177 3176 3174 3172 3171 3171 3169 3167 3166 3166 3164 3163
3134 3137 3139 3142 3145 3151 3155 3160 3163 3166 3168 3170 3174 3177 3180 3181 3182 3184 3188 3190 3189 3189 3189 3188 3189 3187 3185 3182 3179 3178 3175 3174 3172 3171 3169 3167 3166 3166 3165 3164 3162 3160 3157
3129 3131 3134 3136 3140 3145 3148 3153 3158 3160 3163 3167 3170 3172 3175 3176 3177 3178 3182 3185 3185 3183 3180 3182 3182 3178 3177 3176 3173 3173 3171 3170 3168 3166 3165 3164 3162 3160 3160 3159 3156 3155 3153
3124 3124 3126 3129 3134 3138 3142 3147 3151 3155 3160 3162 3164 3168 3170 3170 3169 3171 3174 3175 3174 3173 3168 3171 3166 3167 3167 3167 3167 3167 3166 3166 3164 3162 3161 3160 3158 3158 3156 3154 3152 3150 3146
3119 3118 3120 3125 3129 3133 3136 3141 3146 3150 3154 3157 3160 3162 3163 3161 3162 3165 3167 3164 3161 3160 3162 3164 3158 3154 3157 3158 3158 3160 3160 3161 3160 3157 3156 3155 3154 3152 3150 3148 3146 3143 3139
3114 3114 3116 3120 3124 3127 3132 3136 3140 3144 3149 3152 3153 3154 3153 3154 3157 3159 3159 3156 3153 3154 3155 3155 3152 3149 3146 3150 3151 3154 3154 3154 3154 3153 3150 3149 3148 3147 3144 3142 3140 3137 3133
3109 3110 3112 3115 3118 3121 3126 3130 3134 3138 3142 3145 3145 3145 3145 3146 3150 3149 3149 3148 3148 3148 3149 3147 3143 3141 3140 3142 3144 3146 3147 3147 3147 3146 3144 3142 3141 3140 3138 3135 3133 3129 3125
3102 3103 3107 3109 3113 3116 3121 3125 3129 3132 3135 3136 3137 3139 3140 3140 3140 3141 3140 3140 3138 3137 3138 3137 3135 3134 3132 3135 3137 3139 3138 3137 3137 3138 3136 3135 3133 3130 3128 3127 3125 3122 3118
3094 3098 3101 3104 3107 3110 3114 3118 3121 3125 3127 3129 3130 3132 3132 3132 3132 3132 3132 3132 3132 3130 3129 3127 3125 3124 3125 3127 3128 3130 3130 3131 3132 3131 3130 3128 3126 3123 3119 3117 3116 3113 3110
3086 3091 3094 3098 3101 3105 3109 3113 3116 3118 3119 3121 3122 3123 3124 3124 3125 3125 3126 3125 3123 3124 3120 3117 3117 3116 3116 3118 3121 3122 3123 3124 3125 3124 3121 3120 3117 3114 3113 3111 3107 3104 3101
3079 3083 3088 3091 3095 3099 3103 3106 3109 3111 3112 3114 3115 3115 3116 3116 3117 3118 3118 3117 3115 3114 3112 3111 3110 3110 3110 3111 3115 3116 3117 3117 3117 3116 3113 3108 3107 3105 3104 3102 3099 3094 3091
3072 3076 3080 3085 3089 3092 3096 3099 3101 3103 3106 3107 3108 3109 3108 3108 3108 3108 3111 3109 3108 3106 3105 3103 3103 3102 3103 3105 3107 3108 3110 3110 3108 3106 3101 3098 3101 3098 3096 3095 3091 3086 3082
3064 3069 3073 3077 3081 3085 3089 3092 3094 3097 3099 3101 3102 3102 3102 3100 3101 3100 3099 3098 3100 3100 3099 3098 3098 3098 3098 3099 3100 3102 3102 3101 3100 3098 3094 3092 3092 3091 3088 3084 3080 3077 3074
3058 3063 3068 3071 3075 3079 3082 3085 3089 3092 3094 3095 3095 3094 3094 3094 3093 3093 3093 3093 3093 3094 3094 3094 3093 3093 3092 3094 3096 3095 3094 3093 3092 3091 3089 3087 3085 3081 3077 3075 3071 3068 3065
3057 3061 3065 3069 3073 3075 3078 3080 3084 3087 3087 3088 3088 3087 3087 3086 3086 3087 3088 3088 3088 3089 3088 3088 3087 3088 3088 3089 3090 3088 3087 3088 3086 3085 3082 3080 3077 3072 3069 3066 3064 3061 3058
3057 3061 3064 3066 3069 3070 3072 3075 3077 3078 3078 3079 3079 3078 3079 3081 3081 3081 3082 3083 3082 3083 3083 3082 3082 3082 3081 3082 3082 3081 3080 3081 3080 3077 3075 3071 3068 3065 3063 3060 3057 3054 3052
3055 3060 3062 3063 3064 3065 3067 3068 3069 3069 3069 3070 3072 3072 3073 3074 3076 3076 3077 3078 3078 3078 3078 3076 3077 3077 3076 3077 3076 3077 3076 3074 3072 3070 3067 3063 3061 3059 3056 3053 3051 3048 3046
Wind_Speed
20 20 20 20 19 18 18 20 19 15 15 15 14 14 13 14 15 15 14 15 15 15 16 16 15 16 18 19 19 16 16 16 15 14 13 11 9 7 6 7 6 6 9
29 25 24 23 22 20 19 19 18 18 16 17 15 15 15 16 14 14 13 13 12 11 10 9 10 10 12 12 13 12 12 12 13 13 11 6 15 9 9 8 6 5 7
32 29 28 26 24 23 21 20 19 18 19 17 18 17 16 14 11 11 10 9 8 6 4 2 1 3 6 9 10 10 9 10 11 10 9 8 4 10 12 9 9 9 10
33 34 32 30 28 23 23 21 22 22 21 19 19 18 16 16 14 13 13 12 10 8 6 5 5 7 9 11 12 11 9 9 11 9 9 10 12 6 4 10 14 13 13
29 33 35 33 29 26 25 22 24 22 21 20 21 21 20 19 18 15 12 9 8 6 6 8 9 11 11 12 13 12 10 10 10 10 10 10 9 9 9 8 10 17 20
25 25 26 28 27 26 26 25 25 22 20 21 21 23 23 19 18 15 10 7 4 2 5 7 10 12 14 14 14 12 11 10 9 9 9 11 11 9 10 11 13 16 18
28 25 25 27 29 29 27 26 25 21 21 21 22 22 20 20 18 14 12 9 4 3 4 6 9 11 14 16 15 13 12 11 11 11 11 12 13 13 15 15 14 12 14
21 29 28 27 28 28 28 27 24 22 20 21 22 22 21 21 19 17 15 11 8 8 8 7 9 12 14 16 18 15 13 13 13 12 11 11 14 14 14 15 17 18 15
20 26 32 31 31 30 28 24 24 23 22 22 22 21 22 23 24 21 17 14 11 10 9 13 14 15 15 16 19 18 16 15 14 14 12 13 14 15 15 16 18 20 22
22 22 25 30 33 32 30 27 25 25 27 27 25 24 23 27 28 26 23 19 15 14 12 13 17 22 22 18 21 20 18 16 16 16 14 13 14 14 15 17 21 23 22
18 23 23 26 35 34 31 27 26 24 25 28 26 28 27 30 32 32 26 24 21 25 16 17 27 25 25 22 21 22 19 18 16 15 14 14 15 16 17 17 22 24 25
18 18 23 30 30 34 37 32 28 28 26 21 21 23 28 34 36 38 32 28 28 31 23 27 25 22 26 28 23 23 22 18 16 15 13 15 18 16 17 21 22 23 26
23 23 26 34 27 31 33 31 31 29 27 24 25 24 26 29 37 41 42 35 42 40 44 46 45 40 32 29 24 23 23 20 17 14 15 16 20 17 19 22 23 25 30
18 20 29 32 30 32 31 31 32 32 29 28 27 27 29 34 35 36 42 51 48 55 55 44 41 36 38 30 23 25 24 23 20 18 19 19 21 21 24 26 27 31 33
23 22 31 33 26 26 30 33 33 32 27 28 29 29 33 34 33 35 39 45 52 47 46 39 36 37 37 33 26 27 27 25 24 23 22 23 26 28 30 32 30 32 33
26 22 33 31 23 20 22 25 25 27 27 30 31 31 29 26 26 29 36 41 39 36 34 27 34 35 36 37 31 29 29 28 27 28 26 29 29 30 30 32 32 33 36
23 24 30 28 25 24 26 28 28 29 32 32 31 28 27 28 29 29 29 28 28 29 31 29 34 32 32 35 32 30 32 33 33 32 33 32 31 32 30 30 32 35 36
30 29 31 32 28 30 30 31 34 34 33 33 32 29 29 24 22 20 18 20 25 26 23 26 29 29 31 35 34 36 35 35 33 33 35 38 37 37 27 29 35 37 36
32 32 32 32 34 34 32 32 32 34 34 35 35 31 21 12 14 14 18 17 24 27 23 25 24 26 30 35 33 35 34 36 33 36 44 42 42 39 28 31 36 37 37
33 31 31 38 36 31 33 31 35 34 36 36 33 25 17 14 17 19 22 21 22 23 20 22 23 24 27 31 28 28 31 34 37 37 48 40 34 32 29 34 37 38 36
36 35 33 31 33 34 33 34 33 33 31 28 26 22 23 25 30 31 36 21 18 16 17 19 22 24 26 24 26 27 29 35 41 44 40 35 29 34 34 36 37 36 35
31 33 34 29 31 34 32 31 30 27 24 21 21 26 29 29 31 27 29 21 13 13 13 16 19 21 22 26 27 28 32 37 37 35 35 33 34 34 33 35 35 35 35
30 29 28 31 34 34 33 29 24 21 21 25 31 31 28 21 19 21 20 18 14 14 15 17 21 21 26 27 28 32 34 35 35 31 31 33 33 32 35 33 33 34 34
32 32 31 31 31 32 31 28 22 24 28 32 28 22 20 17 18 18 18 16 14 17 15 20 25 25 27 29 28 29 30 32 29 30 30 31 33 33 32 33 32 32 27
25 23 23 23 24 26 25 25 27 31 30 27 25 21 20 19 18 19 19 19 18 15 15 16 21 27 24 22 22 21 23 26 28 27 29 31 30 29 30 29 29 21 18
19 16 18 20 22 24 26 29 29 24 25 23 20 21 21 19 20 18 15 16 19 18 18 15 18 19 23 21 19 20 23 23 23 26 30 31 30 28 27 25 23 23 25
Wind_Direction
227 224 222 223 223 221 223 223 225 225 226 223 233 233 236 236 235 240 245 248 250 256 260 267 274 276 267 275 284 290 296 298 297 295 297 303 295 296 292 290 276 253 244
225 226 229 232 232 233 232 230 226 227 225 222 224 226 226 233 232 240 244 251 250 250 250 254 260 274 284 284 291 301 299 291 280 280 294 299 316 321 296 295 292 279 261
225 226 233 237 237 237 236 237 232 222 213 211 213 211 213 218 216 209 205 197 188 188 188 186 330 347 322 320 314 307 301 290 286 281 276 284 258 284 300 298 302 292 282
225 226 229 234 236 239 234 240 224 206 205 205 204 198 196 191 182 171 160 145 133 119 103 69 33 11 358 348 333 321 311 298 289 292 279 266 266 256 294 307 305 296 292
223 226 230 234 237 232 233 229 209 200 197 196 191 190 190 179 171 164 156 135 114 98 69 38 19 6 353 346 342 331 318 304 297 296 292 276 269 271 266 269 284 300 301
232 223 226 229 223 219 222 208 204 197 191 191 192 190 187 187 180 180 177 151 130 76 22 12 5 357 348 341 339 337 324 311 304 296 290 285 286 281 271 266 274 286 293
235 232 218 216 212 210 206 203 203 199 195 193 193 192 191 189 187 185 183 182 199 265 307 327 332 337 337 333 331 330 328 319 313 307 305 293 291 293 298 302 301 297 300
234 241 237 226 215 212 205 206 206 203 206 201 194 191 190 190 192 193 199 209 230 252 275 298 311 317 322 320 320 319 325 316 309 303 297 290 286 296 304 306 304 304 304
218 228 234 238 228 216 208 204 202 210 217 212 205 202 201 205 205 209 217 228 243 267 289 312 314 308 311 309 309 311 313 313 309 306 302 298 299 301 302 299 295 296 302
223 224 222 233 236 225 214 213 215 219 221 221 219 218 218 216 218 223 230 242 257 254 282 301 299 306 302 303 303 302 303 305 305 305 307 306 303 300 296 298 305 301 293
257 235 226 229 235 230 220 218 221 218 224 228 228 230 233 230 230 233 234 237 254 263 265 276 291 288 284 294 299 295 292 295 300 303 308 314 312 303 300 302 310 309 303
268 249 226 225 231 231 229 226 224 224 225 228 228 232 238 241 242 240 233 249 246 257 262 274 285 263 281 284 289 290 285 284 289 293 296 312 307 307 304 303 307 310 307
261 249 228 222 223 223 223 222 221 225 229 232 234 238 245 251 252 247 240 262 252 253 263 303 309 265 267 270 272 279 278 274 277 283 298 311 311 300 304 302 303 308 309
258 260 221 213 220 222 224 219 217 225 230 235 237 242 249 252 257 256 252 252 264 259 274 302 305 284 254 257 261 269 271 271 275 279 295 309 314 303 304 304 302 303 313
257 262 206 207 213 216 217 218 219 226 228 231 240 250 254 260 265 264 264 262 264 281 290 291 285 288 252 247 252 263 265 266 272 281 290 296 300 302 303 305 305 308 308
243 243 209 203 205 214 220 220 218 222 226 236 245 249 251 256 258 260 258 265 275 286 294 285 282 276 274 250 250 255 258 264 266 270 276 277 284 287 293 298 305 307 306
232 238 220 197 204 210 216 216 215 222 231 238 246 253 260 262 267 270 272 274 282 276 284 279 278 277 273 248 244 249 252 255 263 271 273 283 290 285 285 298 300 306 301
226 217 215 211 218 214 209 215 222 228 236 242 251 262 269 275 280 286 291 293 288 279 267 271 271 273 261 243 241 247 251 259 266 277 285 286 286 286 295 301 305 303 301
227 217 223 218 225 219 223 223 225 230 238 244 253 264 260 259 303 302 288 304 317 285 280 263 266 259 249 248 248 245 253 263 272 276 274 285 280 279 295 301 300 300 299
213 218 229 223 224 229 229 233 233 237 243 250 256 247 249 288 313 314 302 297 290 277 260 256 260 267 257 249 254 253 262 267 271 276 280 300 287 282 297 299 299 299 300
215 216 224 231 230 230 229 232 234 241 247 244 238 248 279 294 303 302 288 288 282 263 259 260 265 268 250 251 250 254 264 274 279 286 291 286 284 291 295 298 298 297 298
208 216 224 226 215 214 216 224 229 228 230 240 265 274 283 293 304 293 285 280 257 253 269 267 262 256 241 247 256 263 271 272 288 289 284 291 292 292 296 298 298 298 299
197 197 199 200 203 209 214 214 216 231 254 271 278 290 299 292 281 273 276 264 244 252 265 271 261 251 250 254 266 272 277 268 284 280 284 290 293 296 298 298 296 296 295
176 181 187 196 205 213 220 224 239 263 272 282 285 282 281 271 265 266 263 252 246 246 257 256 255 253 254 260 275 277 273 281 277 285 286 290 294 296 297 299 296 293 293
167 175 185 196 209 220 231 246 263 273 281 283 284 282 271 257 259 259 258 257 245 248 257 258 262 257 256 270 280 275 274 279 282 284 288 298 301 299 296 293 293 290 291
200 220 228 234 238 243 254 264 276 282 283 284 276 262 251 246 236 237 239 240 245 256 266 270 261 264 277 286 288 285 283 286 290 291 296 297 293 289 286 289 287 286 292